When you browse on this site, cookies collect data to enhance your experience and personalize the content and advertising you see.
Visit our Privacy Policy to learn more. By continuing to use the site, you agree to this use of cookies and data.
  • In United States
  • List of Countries
  • For 7 days
  • Water Temperature
  • Satellite Maps
  • Weather Map
  • Weather Widgets
  • user-avatar
    Login

    Hourly Weather Benguela

    Today, 21 January, Monday

    Time Temperature Precipitation Wind Pressure Humidity
    00:00 +28°C° 0 mm 2 mps 759 mmHg 74%
    01:00 +28°C° 0 mm 2 mps 759 mmHg 74%
    02:00 +28°C° 0 mm 2 mps 759 mmHg 75%
    03:00 +28°C° 0 mm 2 mps 759 mmHg 76%
    04:00 +28°C° 0 mm 2 mps 759 mmHg 78%
    05:00 +28°C° 0.5 mm 1 mps 760 mmHg 79%
    06:00 +28°C° 0.5 mm 1 mps 760 mmHg 81%
    07:00 +27°C° 0 mm 1 mps 760 mmHg 83%
    08:00 +28°C° 0.3 mm 1 mps 760 mmHg 81%
    09:00 +28°C° 0.3 mm 1 mps 760 mmHg 79%
    10:00 +26°C° 0.3 mm 0 mps 760 mmHg 77%
    11:00 +29°C° 0.1 mm 1 mps 760 mmHg 75%
    12:00 +29°C° 0.1 mm 1 mps 759 mmHg 73%
    13:00 +30°C° 0.1 mm 1 mps 759 mmHg 70%
    14:00 +30°C° 0 mm 2 mps 758 mmHg 67%
    15:00 +31°C° 0 mm 2 mps 758 mmHg 63%
    16:00 +33°C° 0 mm 3 mps 757 mmHg 59%
    17:00 +31°C° 0 mm 3 mps 758 mmHg 64%
    18:00 +30°C° 0 mm 3 mps 758 mmHg 69%
    19:00 +29°C° 0 mm 3 mps 758 mmHg 74%
    20:00 +28°C° 0.6 mm 2 mps 759 mmHg 76%
    21:00 +28°C° 0.6 mm 2 mps 759 mmHg 78%
    22:00 +28°C° 0.6 mm 1 mps 760 mmHg 81%
    23:00 +28°C° 2.2 mm 1 mps 760 mmHg 83%

    Tomorrow, 22 January, Tuesday

    Time Temperature Precipitation Wind Pressure Humidity
    00:00 +27°C° 2.2 mm 1 mps 760 mmHg 84%
    01:00 +27°C° 2.2 mm 1 mps 759 mmHg 86%
    02:00 +27°C° 1.6 mm 1 mps 759 mmHg 87%
    03:00 +27°C° 1.6 mm 1 mps 759 mmHg 88%
    04:00 +25°C° 1.6 mm 0 mps 759 mmHg 88%
    05:00 +25°C° 0.9 mm 0 mps 759 mmHg 88%
    06:00 +25°C° 0.9 mm 0 mps 759 mmHg 88%
    07:00 +25°C° 0.9 mm 0 mps 760 mmHg 87%
    08:00 +27°C° 0.5 mm 1 mps 760 mmHg 84%
    09:00 +28°C° 0.5 mm 1 mps 760 mmHg 81%
    10:00 +28°C° 0.5 mm 1 mps 761 mmHg 78%
    11:00 +29°C° 0.1 mm 1 mps 760 mmHg 76%
    12:00 +29°C° 0.1 mm 2 mps 760 mmHg 75%
    13:00 +29°C° 0.1 mm 2 mps 760 mmHg 73%
    14:00 +29°C° 0.1 mm 2 mps 759 mmHg 73%
    15:00 +29°C° 0.1 mm 2 mps 758 mmHg 73%
    16:00 +29°C° 0.1 mm 2 mps 758 mmHg 73%
    17:00 +29°C° 0 mm 2 mps 758 mmHg 75%
    18:00 +28°C° 0 mm 2 mps 759 mmHg 76%
    19:00 +28°C° 0 mm 2 mps 759 mmHg 77%
    20:00 +28°C° 0 mm 2 mps 759 mmHg 78%
    21:00 +27°C° 0 mm 2 mps 760 mmHg 79%
    22:00 +27°C° 0 mm 2 mps 760 mmHg 80%
    23:00 +27°C° 0 mm 2 mps 760 mmHg 80%

    Day after tomorrow, 23 January, Wednesday

    Time Temperature Precipitation Wind Pressure Humidity
    00:00 +27°C° 0 mm 2 mps 760 mmHg 81%
    01:00 +27°C° 0 mm 2 mps 759 mmHg 81%
    02:00 +27°C° 0 mm 2 mps 759 mmHg 81%
    03:00 +27°C° 0 mm 1 mps 759 mmHg 81%
    04:00 +27°C° 0 mm 1 mps 758 mmHg 81%
    05:00 +27°C° 0 mm 1 mps 759 mmHg 80%
    06:00 +27°C° 0 mm 1 mps 759 mmHg 79%
    07:00 +28°C° 0 mm 1 mps 759 mmHg 78%
    08:00 +29°C° 0.1 mm 1 mps 759 mmHg 73%
    09:00 +30°C° 0.1 mm 2 mps 760 mmHg 67%
    10:00 +31°C° 0.1 mm 2 mps 760 mmHg 62%
    11:00 +33°C° 0 mm 3 mps 759 mmHg 59%
    12:00 +34°C° 0 mm 4 mps 759 mmHg 57%
    13:00 +34°C° 0 mm 5 mps 758 mmHg 55%
    14:00 +34°C° 0 mm 5 mps 757 mmHg 55%
    15:00 +33°C° 0 mm 5 mps 757 mmHg 55%
    16:00 +33°C° 0 mm 5 mps 757 mmHg 55%
    17:00 +32°C° 0 mm 4 mps 757 mmHg 59%
    18:00 +30°C° 0 mm 4 mps 758 mmHg 62%
    19:00 +29°C° 0 mm 3 mps 758 mmHg 65%
    20:00 +28°C° 0 mm 2 mps 758 mmHg 66%
    21:00 +28°C° 0 mm 2 mps 759 mmHg 66%
    22:00 +28°C° 0 mm 1 mps 759 mmHg 67%
    23:00 +28°C° 0 mm 1 mps 759 mmHg 68%

    24 January, Thursday

    Time Temperature Precipitation Wind Pressure Humidity
    00:00 +28°C° 0 mm 1 mps 759 mmHg 69%
    01:00 +27°C° 0 mm 1 mps 758 mmHg 70%
    02:00 +27°C° 0 mm 1 mps 758 mmHg 71%
    03:00 +27°C° 0 mm 1 mps 757 mmHg 72%
    04:00 +27°C° 0 mm 1 mps 757 mmHg 73%
    05:00 +27°C° 0 mm 1 mps 757 mmHg 72%
    06:00 +27°C° 0 mm 1 mps 758 mmHg 72%
    07:00 +27°C° 0 mm 1 mps 758 mmHg 71%
    08:00 +29°C° 0 mm 1 mps 758 mmHg 65%
    09:00 +30°C° 0 mm 2 mps 758 mmHg 58%
    10:00 +32°C° 0 mm 2 mps 759 mmHg 51%
    11:00 +33°C° 0 mm 3 mps 758 mmHg 50%
    12:00 +34°C° 0 mm 4 mps 757 mmHg 49%
    13:00 +35°C° 0 mm 5 mps 756 mmHg 48%
    14:00 +34°C° 0 mm 5 mps 756 mmHg 50%
    15:00 +33°C° 0 mm 5 mps 756 mmHg 52%
    16:00 +33°C° 0 mm 5 mps 755 mmHg 55%
    17:00 +30°C° 0 mm 4 mps 756 mmHg 59%
    18:00 +29°C° 0 mm 4 mps 756 mmHg 64%
    19:00 +28°C° 0 mm 3 mps 757 mmHg 69%
    20:00 +28°C° 0 mm 2 mps 757 mmHg 69%
    21:00 +28°C° 0 mm 2 mps 758 mmHg 68%
    22:00 +28°C° 0 mm 1 mps 758 mmHg 68%
    23:00 +28°C° 0 mm 1 mps 758 mmHg 68%

    25 January, Friday

    Time Temperature Precipitation Wind Pressure Humidity
    00:00 +28°C° 0 mm 1 mps 758 mmHg 69%
    01:00 +28°C° 0 mm 1 mps 757 mmHg 69%
    02:00 +27°C° 0 mm 1 mps 757 mmHg 70%
    03:00 +27°C° 0 mm 1 mps 757 mmHg 71%
    04:00 +27°C° 0 mm 1 mps 757 mmHg 72%
    05:00 +27°C° 0 mm 1 mps 757 mmHg 73%
    06:00 +27°C° 0 mm 1 mps 758 mmHg 73%
    07:00 +27°C° 0 mm 1 mps 758 mmHg 73%
    08:00 +29°C° 0 mm 1 mps 758 mmHg 68%
    09:00 +30°C° 0 mm 2 mps 758 mmHg 64%
    10:00 +32°C° 0 mm 2 mps 758 mmHg 59%
    11:00 +33°C° 0 mm 3 mps 758 mmHg 57%
    12:00 +34°C° 0 mm 4 mps 757 mmHg 54%
    13:00 +35°C° 0 mm 4 mps 756 mmHg 52%
    14:00 +34°C° 0 mm 4 mps 756 mmHg 54%
    15:00 +33°C° 0 mm 4 mps 756 mmHg 56%
    16:00 +33°C° 0 mm 4 mps 755 mmHg 58%
    17:00 +31°C° 0.3 mm 3 mps 756 mmHg 63%
    18:00 +30°C° 0.3 mm 3 mps 756 mmHg 68%
    19:00 +29°C° 0.3 mm 2 mps 757 mmHg 73%
    20:00 +28°C° 0.9 mm 2 mps 758 mmHg 74%
    21:00 +28°C° 0.9 mm 2 mps 758 mmHg 76%
    22:00 +28°C° 0.9 mm 2 mps 759 mmHg 77%
    23:00 +28°C° 0.4 mm 2 mps 759 mmHg 77%

    26 January, Saturday

    Time Temperature Precipitation Wind Pressure Humidity
    00:00 +28°C° 0.4 mm 2 mps 758 mmHg 77%
    01:00 +28°C° 0.4 mm 2 mps 758 mmHg 77%
    02:00 +28°C° 0.6 mm 2 mps 758 mmHg 78%
    03:00 +28°C° 0.6 mm 2 mps 758 mmHg 79%
    04:00 +28°C° 0.6 mm 2 mps 758 mmHg 81%
    05:00 +28°C° 0.3 mm 1 mps 758 mmHg 81%
    06:00 +28°C° 0.3 mm 1 mps 759 mmHg 81%
    07:00 +28°C° 0.3 mm 1 mps 759 mmHg 82%
    08:00 +28°C° 0.1 mm 1 mps 760 mmHg 78%
    09:00 +29°C° 0.1 mm 1 mps 760 mmHg 75%
    10:00 +30°C° 0.1 mm 1 mps 760 mmHg 72%
    11:00 +31°C° 0 mm 2 mps 759 mmHg 69%
    12:00 +31°C° 0 mm 3 mps 759 mmHg 67%
    13:00 +33°C° 0 mm 4 mps 758 mmHg 64%
    14:00 +33°C° 0 mm 4 mps 758 mmHg 66%
    15:00 +32°C° 0 mm 4 mps 758 mmHg 67%
    16:00 +32°C° 0 mm 4 mps 757 mmHg 69%
    17:00 +30°C° 0 mm 3 mps 758 mmHg 72%
    18:00 +29°C° 0 mm 3 mps 758 mmHg 75%
    19:00 +29°C° 0 mm 2 mps 759 mmHg 78%
    20:00 +28°C° 0 mm 2 mps 759 mmHg 78%
    21:00 +28°C° 0 mm 2 mps 760 mmHg 78%
    22:00 +28°C° 0 mm 2 mps 760 mmHg 78%
    23:00 +28°C° 0 mm 2 mps 759 mmHg 78%
    Show more